Time,TemperatureF,DewpointF,PressureIn,WindDirection,WindDirectionDegrees,WindSpeedMPH,WindSpeedGustMPH,Humidity,HourlyPrecipIn,Conditions,Clouds,dailyrainin,SoftwareType,DateUTC
2013-02-12 00:00:00,6.2,2.4,30.05,WNW,296,0.0,0.0,84,0.00,,---,0.00,VWS V14.01,2013-02-12 06:00:00,
2013-02-12 00:05:00,6.5,2.5,30.04,WNW,296,0.0,0.0,83,0.00,,---,0.00,VWS V14.01,2013-02-12 06:05:00,
2013-02-12 00:10:00,6.9,3.1,30.05,WNW,295,0.0,0.0,84,0.00,,---,0.00,VWS V14.01,2013-02-12 06:10:00,
2013-02-12 00:15:00,7.2,3.4,30.05,WNW,296,0.0,0.0,84,0.00,,---,0.00,VWS V14.01,2013-02-12 06:15:00,
2013-02-12 00:20:00,7.6,3.8,30.05,WNW,296,0.0,0.0,84,0.00,,---,0.00,VWS V14.01,2013-02-12 06:20:00,
2013-02-12 00:25:00,7.8,4.0,30.05,WNW,296,0.0,0.0,84,0.00,,---,0.00,VWS V14.01,2013-02-12 06:25:00,
2013-02-12 00:30:00,8.1,4.3,30.05,WNW,295,0.0,0.0,84,0.00,,---,0.00,VWS V14.01,2013-02-12 06:30:00,
2013-02-12 00:35:00,8.5,4.7,30.05,WNW,295,0.0,0.0,84,0.00,,---,0.00,VWS V14.01,2013-02-12 06:35:00,
2013-02-12 00:40:00,9.0,5.4,30.05,WNW,295,0.0,0.0,85,0.00,,---,0.00,VWS V14.01,2013-02-12 06:40:00,
2013-02-12 00:45:00,9.2,5.6,30.05,WNW,296,0.0,0.0,85,0.00,,---,0.00,VWS V14.01,2013-02-12 06:45:00,
2013-02-12 00:50:00,10.1,6.8,30.04,WNW,296,0.0,0.0,86,0.00,,---,0.00,VWS V14.01,2013-02-12 06:50:00,
2013-02-12 00:55:00,11.2,7.8,30.05,WNW,296,0.0,0.0,86,0.00,,---,0.00,VWS V14.01,2013-02-12 06:55:00,
2013-02-12 01:00:00,12.7,9.6,30.04,WNW,295,0.0,0.0,87,0.00,,---,0.00,VWS V14.01,2013-02-12 07:00:00,
2013-02-12 01:05:00,14.0,10.9,30.04,WNW,296,0.0,0.0,87,0.00,,---,0.00,VWS V14.01,2013-02-12 07:05:00,
2013-02-12 01:10:00,14.7,11.5,30.03,WNW,295,0.0,0.0,87,0.00,,---,0.00,VWS V14.01,2013-02-12 07:10:00,
2013-02-12 01:15:00,15.2,11.8,30.03,WNW,296,0.0,0.0,86,0.00,,---,0.00,VWS V14.01,2013-02-12 07:15:00,
2013-02-12 01:20:00,15.4,12.0,30.03,WNW,295,0.0,0.0,86,0.00,,---,0.00,VWS V14.01,2013-02-12 07:20:00,
2013-02-12 01:25:00,15.6,11.9,30.03,WNW,296,0.0,0.0,85,0.00,,---,0.00,VWS V14.01,2013-02-12 07:25:00,
2013-02-12 01:30:00,15.8,12.1,30.03,WNW,296,0.0,0.0,85,0.00,,---,0.00,VWS V14.01,2013-02-12 07:30:00,
2013-02-12 01:35:00,15.9,12.2,30.03,WNW,295,0.0,0.0,85,0.00,,---,0.00,VWS V14.01,2013-02-12 07:35:00,
2013-02-12 01:40:00,16.0,12.3,30.02,WSW,252,0.0,1.0,85,0.00,,---,0.00,VWS V14.01,2013-02-12 07:40:00,
2013-02-12 01:45:00,16.1,12.1,30.02,WSW,252,0.0,1.0,84,0.00,,---,0.00,VWS V14.01,2013-02-12 07:45:00,
2013-02-12 01:50:00,16.2,12.2,30.02,WSW,252,0.0,1.0,84,0.00,,---,0.00,VWS V14.01,2013-02-12 07:50:00,
2013-02-12 01:55:00,16.2,12.2,30.02,WSW,252,0.0,1.0,84,0.00,,---,0.00,VWS V14.01,2013-02-12 07:55:00,
2013-02-12 02:00:00,16.3,12.3,30.02,WSW,252,0.0,1.0,84,0.00,,---,0.00,VWS V14.01,2013-02-12 08:00:00,
2013-02-12 02:05:00,16.4,12.1,30.02,WSW,252,0.0,0.0,83,0.00,,---,0.00,VWS V14.01,2013-02-12 08:05:00,
2013-02-12 02:10:00,16.4,12.1,30.02,WSW,252,0.0,0.0,83,0.00,,---,0.00,VWS V14.01,2013-02-12 08:10:00,
2013-02-12 02:15:00,16.4,12.1,30.01,WSW,252,0.0,0.0,83,0.00,,---,0.00,VWS V14.01,2013-02-12 08:15:00,
2013-02-12 02:20:00,16.4,12.1,30.01,WSW,252,0.0,0.0,83,0.00,,---,0.00,VWS V14.01,2013-02-12 08:20:00,
2013-02-12 02:25:00,16.4,12.1,30.01,WSW,252,0.0,0.0,83,0.00,,---,0.00,VWS V14.01,2013-02-12 08:25:00,
2013-02-12 02:30:00,16.5,12.2,30.01,WSW,252,0.0,0.0,83,0.00,,---,0.00,VWS V14.01,2013-02-12 08:30:00,
2013-02-12 02:35:00,16.5,12.2,30.01,WSW,252,0.0,1.0,83,0.00,,---,0.00,VWS V14.01,2013-02-12 08:35:00,
2013-02-12 02:40:00,16.6,12.1,30.01,SW,219,0.0,2.0,82,0.00,,---,0.00,VWS V14.01,2013-02-12 08:40:00,
2013-02-12 02:45:00,16.7,12.2,30.01,SW,220,0.0,2.0,82,0.00,,---,0.00,VWS V14.01,2013-02-12 08:45:00,
2013-02-12 02:50:00,16.8,12.3,30.01,SW,219,0.0,2.0,82,0.00,,---,0.00,VWS V14.01,2013-02-12 08:50:00,
2013-02-12 02:55:00,16.8,12.3,30.01,SW,220,0.0,2.0,82,0.00,,---,0.00,VWS V14.01,2013-02-12 08:55:00,
2013-02-12 03:00:00,16.9,12.4,30.01,SW,215,0.0,2.0,82,0.00,,---,0.00,VWS V14.01,2013-02-12 09:00:00,
2013-02-12 03:05:00,17.0,12.5,30.00,SW,215,0.0,0.0,82,0.00,,---,0.00,VWS V14.01,2013-02-12 09:05:00,
2013-02-12 03:10:00,17.0,12.5,30.00,SW,215,0.0,0.0,82,0.00,,---,0.00,VWS V14.01,2013-02-12 09:10:00,
2013-02-12 03:15:00,17.1,12.6,30.00,SW,215,0.0,0.0,82,0.00,,---,0.00,VWS V14.01,2013-02-12 09:15:00,
2013-02-12 03:20:00,17.1,12.6,30.00,SW,215,0.0,0.0,82,0.00,,---,0.00,VWS V14.01,2013-02-12 09:20:00,
2013-02-12 03:25:00,17.2,12.7,29.99,SW,215,0.0,0.0,82,0.00,,---,0.00,VWS V14.01,2013-02-12 09:25:00,
2013-02-12 03:30:00,17.2,12.7,29.99,SW,215,0.0,0.0,82,0.00,,---,0.00,VWS V14.01,2013-02-12 09:30:00,
2013-02-12 03:35:00,17.2,12.9,29.99,SW,215,0.0,0.0,83,0.00,,---,0.00,VWS V14.01,2013-02-12 09:35:00,
2013-02-12 03:40:00,17.3,13.0,29.99,SW,215,0.0,0.0,83,0.00,,---,0.00,VWS V14.01,2013-02-12 09:40:00,
2013-02-12 03:45:00,17.4,13.1,29.99,SW,215,0.0,0.0,83,0.00,,---,0.00,VWS V14.01,2013-02-12 09:45:00,
2013-02-12 03:50:00,17.5,12.9,29.99,SW,215,0.0,2.0,82,0.00,,---,0.00,VWS V14.01,2013-02-12 09:50:00,
2013-02-12 03:55:00,17.6,13.1,29.99,SW,215,0.0,2.0,82,0.00,,---,0.00,VWS V14.01,2013-02-12 09:55:00,
2013-02-12 04:00:00,17.7,13.1,29.99,SW,215,0.0,2.0,82,0.00,,---,0.00,VWS V14.01,2013-02-12 10:00:00,
2013-02-12 04:05:00,17.7,13.1,29.99,SW,215,0.0,0.0,82,0.00,,---,0.00,VWS V14.01,2013-02-12 10:05:00,
2013-02-12 04:10:00,17.8,13.2,29.99,SW,215,0.0,2.0,82,0.00,,---,0.00,VWS V14.01,2013-02-12 10:10:00,
2013-02-12 04:15:00,17.8,13.2,29.98,SW,215,0.0,2.0,82,0.00,,---,0.00,VWS V14.01,2013-02-12 10:15:00,
2013-02-12 04:20:00,17.8,13.2,29.98,SSW,211,0.0,2.0,82,0.00,,---,0.00,VWS V14.01,2013-02-12 10:20:00,
2013-02-12 04:25:00,17.7,13.1,29.98,SSE,161,0.0,2.0,82,0.00,,---,0.00,VWS V14.01,2013-02-12 10:25:00,
2013-02-12 04:30:00,17.6,13.1,29.98,South,175,0.0,3.0,82,0.00,,---,0.00,VWS V14.01,2013-02-12 10:30:00,
2013-02-12 04:35:00,17.4,12.6,29.98,South,175,0.0,0.0,81,0.00,,---,0.00,VWS V14.01,2013-02-12 10:35:00,
2013-02-12 04:40:00,17.2,12.4,29.98,South,175,0.0,0.0,81,0.00,,---,0.00,VWS V14.01,2013-02-12 10:40:00,
2013-02-12 04:45:00,16.8,12.0,29.98,South,175,0.0,1.0,81,0.00,,---,0.00,VWS V14.01,2013-02-12 10:45:00,
2013-02-12 04:50:00,16.5,11.7,29.97,South,175,0.0,2.0,81,0.00,,---,0.00,VWS V14.01,2013-02-12 10:50:00,
2013-02-12 04:55:00,16.2,11.4,29.97,South,175,0.0,2.0,81,0.00,,---,0.00,VWS V14.01,2013-02-12 10:55:00,
2013-02-12 05:00:00,15.8,11.0,29.97,South,175,0.0,2.0,81,0.00,,---,0.00,VWS V14.01,2013-02-12 11:00:00,
2013-02-12 05:05:00,15.3,10.5,29.98,South,175,0.0,0.0,81,0.00,,---,0.00,VWS V14.01,2013-02-12 11:05:00,
2013-02-12 05:10:00,14.9,10.4,29.98,South,175,0.0,0.0,82,0.00,,---,0.00,VWS V14.01,2013-02-12 11:10:00,
2013-02-12 05:15:00,14.5,10.0,29.98,South,175,0.0,0.0,82,0.00,,---,0.00,VWS V14.01,2013-02-12 11:15:00,
2013-02-12 05:20:00,14.1,9.6,29.98,South,175,0.0,0.0,82,0.00,,---,0.00,VWS V14.01,2013-02-12 11:20:00,
2013-02-12 05:25:00,13.5,8.8,29.98,South,175,0.0,0.0,81,0.00,,---,0.00,VWS V14.01,2013-02-12 11:25:00,
2013-02-12 05:30:00,12.8,8.1,29.98,South,175,0.0,0.0,81,0.00,,---,0.00,VWS V14.01,2013-02-12 11:30:00,
2013-02-12 05:35:00,12.2,7.5,29.98,South,175,0.0,0.0,81,0.00,,---,0.00,VWS V14.01,2013-02-12 11:35:00,
2013-02-12 05:40:00,11.7,7.0,29.98,South,175,0.0,0.0,81,0.00,,---,0.00,VWS V14.01,2013-02-12 11:40:00,
2013-02-12 05:45:00,11.1,6.4,29.97,South,175,0.0,0.0,81,0.00,,---,0.00,VWS V14.01,2013-02-12 11:45:00,
2013-02-12 05:50:00,10.5,6.1,29.97,South,175,0.0,0.0,82,0.00,,---,0.00,VWS V14.01,2013-02-12 11:50:00,
2013-02-12 05:55:00,10.2,5.8,29.96,South,175,0.0,0.0,82,0.00,,---,0.00,VWS V14.01,2013-02-12 11:55:00,
2013-02-12 06:00:00,9.9,5.5,29.96,South,175,0.0,0.0,82,0.00,,---,0.00,VWS V14.01,2013-02-12 12:00:00,
2013-02-12 06:05:00,9.7,5.3,29.96,South,175,0.0,0.0,82,0.00,,---,0.00,VWS V14.01,2013-02-12 12:05:00,
2013-02-12 06:10:00,9.5,5.4,29.96,South,175,0.0,0.0,83,0.00,,---,0.00,VWS V14.01,2013-02-12 12:10:00,
2013-02-12 06:15:00,10.1,6.5,29.95,South,175,0.0,1.0,85,0.00,,---,0.00,VWS V14.01,2013-02-12 12:15:00,
2013-02-12 06:20:00,10.7,7.1,29.95,South,175,0.0,1.0,85,0.00,,---,0.00,VWS V14.01,2013-02-12 12:20:00,
2013-02-12 06:25:00,11.0,7.4,29.95,South,175,0.0,1.0,85,0.00,,---,0.00,VWS V14.01,2013-02-12 12:25:00,
2013-02-12 06:30:00,11.9,8.5,29.95,SSE,168,0.0,3.0,86,0.00,,---,0.00,VWS V14.01,2013-02-12 12:30:00,
2013-02-12 06:35:00,13.0,9.6,29.95,SSE,161,0.0,2.0,86,0.00,,---,0.00,VWS V14.01,2013-02-12 12:35:00,
2013-02-12 06:40:00,14.0,10.6,29.94,SE,140,0.0,3.0,86,0.00,,---,0.00,VWS V14.01,2013-02-12 12:40:00,
2013-02-12 06:45:00,14.5,11.1,29.94,SE,126,0.0,3.0,86,0.00,,---,0.00,VWS V14.01,2013-02-12 12:45:00,
2013-02-12 06:50:00,14.8,11.1,29.94,SSE,164,2.0,3.0,85,0.00,,---,0.00,VWS V14.01,2013-02-12 12:50:00,
2013-02-12 06:55:00,15.0,11.3,29.94,SE,140,0.0,3.0,85,0.00,,---,0.00,VWS V14.01,2013-02-12 12:55:00,
2013-02-12 07:00:00,15.2,11.5,29.94,SSE,158,0.0,3.0,85,0.00,,---,0.00,VWS V14.01,2013-02-12 13:00:00,
2013-02-12 07:05:00,15.3,11.3,29.94,SSE,155,1.0,3.0,84,0.00,,---,0.00,VWS V14.01,2013-02-12 13:05:00,
2013-02-12 07:10:00,15.4,11.4,29.94,SSE,162,0.0,3.0,84,0.00,,---,0.00,VWS V14.01,2013-02-12 13:10:00,
2013-02-12 07:15:00,15.4,11.4,29.94,SSE,147,3.0,3.0,84,0.00,,---,0.00,VWS V14.01,2013-02-12 13:15:00,
2013-02-12 07:20:00,15.4,11.4,29.94,SSE,151,1.0,5.0,84,0.00,,---,0.00,VWS V14.01,2013-02-12 13:20:00,
2013-02-12 07:25:00,15.5,11.5,29.94,South,186,1.0,5.0,84,0.00,,---,0.00,VWS V14.01,2013-02-12 13:25:00,
2013-02-12 07:30:00,15.5,11.5,29.94,SSE,165,0.0,5.0,84,0.00,,---,0.00,VWS V14.01,2013-02-12 13:30:00,
2013-02-12 07:35:00,15.5,11.5,29.94,SSE,153,0.0,2.0,84,0.00,,---,0.00,VWS V14.01,2013-02-12 13:35:00,
2013-02-12 07:40:00,15.6,11.6,29.94,SSE,164,1.0,2.0,84,0.00,,---,0.00,VWS V14.01,2013-02-12 13:40:00,
2013-02-12 07:45:00,15.7,11.7,29.94,SSE,162,0.0,2.0,84,0.00,,---,0.00,VWS V14.01,2013-02-12 13:45:00,
2013-02-12 07:50:00,15.8,13.9,29.93,SE,136,0.0,2.0,92,0.00,,---,0.00,VWS V14.01,2013-02-12 13:50:00,
2013-02-12 07:55:00,15.9,11.9,29.94,South,180,0.0,5.0,84,0.00,,---,0.00,VWS V14.01,2013-02-12 13:55:00,
2013-02-12 08:00:00,16.0,12.0,29.93,SSE,153,0.0,5.0,84,0.00,,---,0.00,VWS V14.01,2013-02-12 14:00:00,
2013-02-12 08:05:00,16.1,11.9,29.93,ESE,123,0.0,0.0,83,0.00,,---,0.00,VWS V14.01,2013-02-12 14:05:00,
2013-02-12 08:10:00,16.2,12.2,29.93,ESE,123,0.0,2.0,84,0.00,,---,0.00,VWS V14.01,2013-02-12 14:10:00,
2013-02-12 08:15:00,16.4,12.4,29.93,ESE,123,0.0,2.0,84,0.00,,---,0.00,VWS V14.01,2013-02-12 14:15:00,
2013-02-12 08:20:00,16.6,12.4,29.93,SSE,164,0.0,4.0,83,0.00,,---,0.00,VWS V14.01,2013-02-12 14:20:00,
2013-02-12 08:25:00,16.8,12.5,29.93,SSE,148,0.0,4.0,83,0.00,,---,0.00,VWS V14.01,2013-02-12 14:25:00,
2013-02-12 08:30:00,17.0,12.7,29.93,SSE,149,0.0,4.0,83,0.00,,---,0.00,VWS V14.01,2013-02-12 14:30:00,
2013-02-12 08:35:00,17.1,12.8,29.93,SSW,195,0.0,3.0,83,0.00,,---,0.00,VWS V14.01,2013-02-12 14:35:00,
2013-02-12 08:40:00,17.2,12.9,29.93,SSE,149,0.0,3.0,83,0.00,,---,0.00,VWS V14.01,2013-02-12 14:40:00,
2013-02-12 08:45:00,17.3,13.0,29.93,SSE,149,0.0,3.0,83,0.00,,---,0.00,VWS V14.01,2013-02-12 14:45:00,
2013-02-12 08:50:00,17.5,13.2,29.93,SSE,149,0.0,3.0,83,0.00,,---,0.00,VWS V14.01,2013-02-12 14:50:00,
2013-02-12 08:55:00,17.8,13.5,29.93,SSE,149,0.0,3.0,83,0.00,,---,0.00,VWS V14.01,2013-02-12 14:55:00,
2013-02-12 09:00:00,18.0,13.4,29.93,South,186,0.0,3.0,82,0.00,,---,0.00,VWS V14.01,2013-02-12 15:00:00,
2013-02-12 09:05:00,18.1,13.5,29.93,South,191,0.0,2.0,82,0.00,,---,0.00,VWS V14.01,2013-02-12 15:05:00,
2013-02-12 09:10:00,18.3,13.7,29.92,South,187,0.0,3.0,82,0.00,,---,0.00,VWS V14.01,2013-02-12 15:10:00,
2013-02-12 09:15:00,18.4,13.8,29.93,South,187,0.0,3.0,82,0.00,,---,0.00,VWS V14.01,2013-02-12 15:15:00,
2013-02-12 09:20:00,18.5,15.8,29.92,SW,217,0.0,3.0,89,0.00,,---,0.00,VWS V14.01,2013-02-12 15:20:00,
2013-02-12 09:25:00,18.6,13.8,29.92,South,173,0.0,3.0,81,0.00,,---,0.00,VWS V14.01,2013-02-12 15:25:00,
2013-02-12 09:30:00,18.7,13.9,29.92,South,173,0.0,3.0,81,0.00,,---,0.00,VWS V14.01,2013-02-12 15:30:00,
2013-02-12 09:35:00,19.0,14.1,29.92,South,171,0.0,3.0,81,0.00,,---,0.00,VWS V14.01,2013-02-12 15:35:00,
2013-02-12 09:40:00,19.5,14.4,29.92,SSW,195,0.0,4.0,80,0.00,,---,0.00,VWS V14.01,2013-02-12 15:40:00,
2013-02-12 09:45:00,19.7,14.3,29.92,SSW,198,2.0,4.0,79,0.00,,---,0.00,VWS V14.01,2013-02-12 15:45:00,
2013-02-12 09:50:00,19.8,14.4,29.92,SSW,195,0.0,4.0,79,0.00,,---,0.00,VWS V14.01,2013-02-12 15:50:00,
2013-02-12 09:55:00,19.9,14.4,29.92,South,190,0.0,4.0,79,0.00,,---,0.00,VWS V14.01,2013-02-12 15:55:00,
2013-02-12 10:00:00,20.1,14.6,29.92,SSW,192,1.0,4.0,79,0.00,,---,0.00,VWS V14.01,2013-02-12 16:00:00,
2013-02-12 10:05:00,20.3,14.6,29.92,SSW,211,1.0,2.0,78,0.00,,---,0.00,VWS V14.01,2013-02-12 16:05:00,
2013-02-12 10:10:00,20.8,15.0,29.92,SSW,212,3.0,3.0,78,0.00,,---,0.00,VWS V14.01,2013-02-12 16:10:00,
2013-02-12 10:15:00,21.4,15.6,29.92,SSW,213,2.0,3.0,78,0.00,,---,0.00,VWS V14.01,2013-02-12 16:15:00,
2013-02-12 10:20:00,22.1,16.0,29.92,SW,221,2.0,4.0,77,0.00,,---,0.00,VWS V14.01,2013-02-12 16:20:00,
2013-02-12 10:25:00,22.3,15.9,29.92,SW,218,3.0,4.0,76,0.00,,---,0.00,VWS V14.01,2013-02-12 16:25:00,
2013-02-12 10:30:00,22.5,16.1,29.92,SW,230,0.0,4.0,76,0.00,,---,0.00,VWS V14.01,2013-02-12 16:30:00,
2013-02-12 10:35:00,22.6,16.2,29.92,SW,229,0.0,3.0,76,0.00,,---,0.00,VWS V14.01,2013-02-12 16:35:00,
2013-02-12 10:40:00,22.8,16.1,29.92,SW,219,1.0,4.0,75,0.00,,---,0.00,VWS V14.01,2013-02-12 16:40:00,
2013-02-12 10:45:00,22.9,16.2,29.91,SW,234,0.0,5.0,75,0.00,,---,0.00,VWS V14.01,2013-02-12 16:45:00,
2013-02-12 10:50:00,23.2,16.5,29.92,SW,227,2.0,5.0,75,0.00,,---,0.00,VWS V14.01,2013-02-12 16:50:00,
2013-02-12 10:55:00,23.6,16.5,29.92,SW,219,0.0,5.0,74,0.00,,---,0.00,VWS V14.01,2013-02-12 16:55:00,
2013-02-12 11:00:00,24.0,16.9,29.92,SW,233,0.0,5.0,74,0.00,,---,0.00,VWS V14.01,2013-02-12 17:00:00,
2013-02-12 11:05:00,24.4,17.0,29.92,SW,233,0.0,3.0,73,0.00,,---,0.00,VWS V14.01,2013-02-12 17:05:00,
2013-02-12 11:10:00,24.5,16.8,29.92,SW,232,1.0,3.0,72,0.00,,---,0.00,VWS V14.01,2013-02-12 17:10:00,
2013-02-12 11:15:00,24.7,17.3,29.92,SW,232,0.0,3.0,73,0.00,,---,0.00,VWS V14.01,2013-02-12 17:15:00,
2013-02-12 11:20:00,25.0,17.6,29.91,South,176,0.0,3.0,73,0.00,,---,0.00,VWS V14.01,2013-02-12 17:20:00,
2013-02-12 11:25:00,25.4,17.6,29.91,SW,221,0.0,3.0,72,0.00,,---,0.00,VWS V14.01,2013-02-12 17:25:00,
2013-02-12 11:29:00,25.5,17.4,29.91,SW,234,2.0,4.0,71,0.00,,---,0.00,VWS V14.01,2013-02-12 17:29:00,
2013-02-12 11:30:00,30.1,19.8,29.88,SW,220,4.0,5.0,65,0.00,,---,0.00,VWS V14.01,2013-02-12 17:30:00,
2013-02-12 11:34:00,25.7,17.9,29.91,South,171,0.0,2.0,72,0.00,,---,0.00,VWS V14.01,2013-02-12 17:34:00,
2013-02-12 11:39:00,26.2,18.1,29.90,SW,222,2.0,3.0,71,0.00,,---,0.00,VWS V14.01,2013-02-12 17:39:00,
2013-02-12 11:44:00,26.3,17.9,29.90,SW,229,4.0,4.0,70,0.00,,---,0.00,VWS V14.01,2013-02-12 17:44:00,
2013-02-12 11:49:00,26.5,18.0,29.91,SW,229,2.0,4.0,70,0.00,,---,0.00,VWS V14.01,2013-02-12 17:49:00,
2013-02-12 11:55:00,27.1,18.6,29.90,SW,227,0.0,4.0,70,0.00,,---,0.00,VWS V14.01,2013-02-12 17:55:00,
2013-02-12 12:00:00,27.9,19.4,29.90,SW,218,0.0,4.0,70,0.00,,---,0.00,VWS V14.01,2013-02-12 18:00:00,
2013-02-12 12:05:00,28.4,18.9,29.90,SW,222,3.0,4.0,67,0.00,,---,0.00,VWS V14.01,2013-02-12 18:05:00,
2013-02-12 12:10:00,29.0,19.4,29.89,SW,223,0.0,5.0,67,0.00,,---,0.00,VWS V14.01,2013-02-12 18:10:00,
2013-02-12 12:14:00,28.8,18.5,29.89,SW,230,0.0,5.0,65,0.00,,---,0.00,VWS V14.01,2013-02-12 18:14:00,
2013-02-12 12:19:00,29.0,19.4,29.88,SW,225,1.0,5.0,67,0.00,,---,0.00,VWS V14.01,2013-02-12 18:19:00,
2013-02-12 12:24:00,29.6,19.6,29.88,SW,219,0.0,5.0,66,0.00,,---,0.00,VWS V14.01,2013-02-12 18:24:00,
2013-02-12 12:29:00,29.9,19.6,29.88,SSW,204,0.0,5.0,65,0.00,,---,0.00,VWS V14.01,2013-02-12 18:29:00,
2013-02-12 12:30:00,31.7,20.2,29.86,SSW,206,0.0,4.0,62,0.00,,---,0.00,VWS V14.01,2013-02-12 18:30:00,
2013-02-12 12:34:00,30.1,19.4,29.88,SSW,213,0.0,5.0,64,0.00,,---,0.00,VWS V14.01,2013-02-12 18:34:00,
2013-02-12 12:39:00,30.2,19.1,29.88,SSW,211,3.0,5.0,63,0.00,,---,0.00,VWS V14.01,2013-02-12 18:39:00,
2013-02-12 12:44:00,30.2,19.5,29.88,SSW,209,1.0,5.0,64,0.00,,---,0.00,VWS V14.01,2013-02-12 18:44:00,
2013-02-12 12:49:00,30.4,19.3,29.87,SW,214,2.0,5.0,63,0.00,,---,0.00,VWS V14.01,2013-02-12 18:49:00,
2013-02-12 12:54:00,30.5,19.4,29.86,SW,217,1.0,5.0,63,0.00,,---,0.00,VWS V14.01,2013-02-12 18:54:00,
2013-02-12 12:59:00,30.7,19.6,29.87,SW,223,0.0,5.0,63,0.00,,---,0.00,VWS V14.01,2013-02-12 18:59:00,
2013-02-12 13:00:00,31.9,20.4,29.86,SW,220,1.0,5.0,62,0.01,,---,0.01,VWS V14.01,2013-02-12 19:00:00,
2013-02-12 13:04:00,30.9,19.4,29.86,SW,222,3.0,4.0,62,0.00,,---,0.00,VWS V14.01,2013-02-12 19:04:00,
2013-02-12 13:09:00,30.9,19.4,29.86,SW,223,3.0,4.0,62,0.00,,---,0.00,VWS V14.01,2013-02-12 19:09:00,
2013-02-12 13:14:00,31.1,19.6,29.86,SW,223,3.0,4.0,62,0.00,,---,0.00,VWS V14.01,2013-02-12 19:14:00,
2013-02-12 13:19:00,31.3,19.8,29.86,SSW,205,0.0,4.0,62,0.00,,---,0.00,VWS V14.01,2013-02-12 19:19:00,
2013-02-12 13:24:00,31.7,19.8,29.86,SW,214,1.0,4.0,61,0.00,,---,0.00,VWS V14.01,2013-02-12 19:24:00,
2013-02-12 13:29:00,31.7,20.2,29.86,SSW,206,2.0,4.0,62,0.00,,---,0.00,VWS V14.01,2013-02-12 19:29:00,
2013-02-12 13:30:00,32.7,20.8,29.86,WSW,257,1.0,5.0,61,0.01,,---,0.01,VWS V14.01,2013-02-12 19:30:00,
2013-02-12 13:34:00,31.9,20.4,29.86,SW,225,2.0,5.0,62,0.00,,---,0.00,VWS V14.01,2013-02-12 19:34:00,
2013-02-12 13:39:00,32.1,20.2,29.86,SW,225,1.0,5.0,61,0.00,,---,0.00,VWS V14.01,2013-02-12 19:39:00,
2013-02-12 13:44:00,32.1,20.6,29.86,SW,225,2.0,5.0,62,0.01,,---,0.01,VWS V14.01,2013-02-12 19:44:00,
2013-02-12 13:49:00,32.0,20.1,29.86,SW,227,1.0,5.0,61,0.01,,---,0.01,VWS V14.01,2013-02-12 19:49:00,
2013-02-12 13:54:00,31.9,20.4,29.86,SW,219,1.0,5.0,62,0.01,,---,0.01,VWS V14.01,2013-02-12 19:54:00,
2013-02-12 13:59:00,31.9,20.4,29.86,SW,225,2.0,5.0,62,0.01,,---,0.01,VWS V14.01,2013-02-12 19:59:00,
2013-02-12 14:00:00,33.4,21.8,29.86,WSW,242,3.0,4.0,62,0.01,,---,0.01,VWS V14.01,2013-02-12 20:00:00,
2013-02-12 14:04:00,32.1,20.6,29.86,SW,219,1.0,3.0,62,0.01,,---,0.01,VWS V14.01,2013-02-12 20:04:00,
2013-02-12 14:09:00,32.3,20.8,29.86,SW,220,1.0,3.0,62,0.01,,---,0.01,VWS V14.01,2013-02-12 20:09:00,
2013-02-12 14:14:00,32.4,20.5,29.86,SW,226,4.0,5.0,61,0.01,,---,0.01,VWS V14.01,2013-02-12 20:14:00,
2013-02-12 14:19:00,32.4,20.5,29.86,SW,229,0.0,5.0,61,0.01,,---,0.01,VWS V14.01,2013-02-12 20:19:00,
2013-02-12 14:24:00,32.6,20.3,29.86,WSW,241,0.0,5.0,60,0.01,,---,0.01,VWS V14.01,2013-02-12 20:24:00,
2013-02-12 14:29:00,32.7,20.8,29.86,WSW,257,0.0,5.0,61,0.01,,---,0.01,VWS V14.01,2013-02-12 20:29:00,
2013-02-12 14:30:00,32.5,20.9,29.86,West,267,0.0,4.0,62,0.00,,---,0.01,VWS V14.01,2013-02-12 20:30:00,
2013-02-12 14:34:00,32.7,20.8,29.86,SW,229,1.0,4.0,61,0.01,,---,0.01,VWS V14.01,2013-02-12 20:34:00,
2013-02-12 14:39:00,32.5,21.3,29.86,SW,226,2.0,4.0,63,0.01,,---,0.01,VWS V14.01,2013-02-12 20:39:00,
2013-02-12 14:44:00,32.6,21.0,29.86,SW,221,3.0,4.0,62,0.01,,---,0.01,VWS V14.01,2013-02-12 20:44:00,
2013-02-12 14:49:00,32.8,21.2,29.86,SW,222,2.0,4.0,62,0.01,,---,0.01,VWS V14.01,2013-02-12 20:49:00,
2013-02-12 14:54:00,33.0,21.4,29.86,WSW,242,2.0,4.0,62,0.01,,---,0.01,VWS V14.01,2013-02-12 20:54:00,
2013-02-12 14:59:00,33.2,21.6,29.86,WSW,242,1.0,4.0,62,0.01,,---,0.01,VWS V14.01,2013-02-12 20:59:00,
2013-02-12 15:00:00,32.4,21.2,29.87,SW,232,2.0,4.0,63,0.00,,---,0.01,VWS V14.01,2013-02-12 21:00:00,
2013-02-12 15:04:00,33.4,21.4,29.86,SW,229,2.0,4.0,61,0.00,,---,0.01,VWS V14.01,2013-02-12 21:04:00,
2013-02-12 15:09:00,33.2,21.2,29.86,SSW,207,2.0,4.0,61,0.00,,---,0.01,VWS V14.01,2013-02-12 21:09:00,
2013-02-12 15:14:00,33.1,21.5,29.86,SW,225,2.0,4.0,62,0.00,,---,0.01,VWS V14.01,2013-02-12 21:14:00,
2013-02-12 15:19:00,33.2,21.2,29.86,SW,228,1.0,4.0,61,0.00,,---,0.01,VWS V14.01,2013-02-12 21:19:00,
2013-02-12 15:24:00,32.9,20.9,29.86,SW,234,1.0,4.0,61,0.00,,---,0.01,VWS V14.01,2013-02-12 21:24:00,
2013-02-12 15:29:00,32.5,20.9,29.86,West,267,0.0,4.0,62,0.00,,---,0.01,VWS V14.01,2013-02-12 21:29:00,
2013-02-12 15:30:00,30.9,20.5,29.87,WSW,237,0.0,5.0,65,0.00,,---,0.01,VWS V14.01,2013-02-12 21:30:00,
2013-02-12 15:34:00,32.5,20.9,29.87,WNW,287,0.0,2.0,62,0.00,,---,0.01,VWS V14.01,2013-02-12 21:34:00,
2013-02-12 15:39:00,32.6,21.4,29.87,WSW,256,1.0,3.0,63,0.00,,---,0.01,VWS V14.01,2013-02-12 21:39:00,
2013-02-12 15:44:00,32.5,20.9,29.86,WSW,249,1.0,4.0,62,0.00,,---,0.01,VWS V14.01,2013-02-12 21:44:00,
2013-02-12 15:49:00,32.3,20.8,29.86,WSW,240,3.0,4.0,62,0.00,,---,0.01,VWS V14.01,2013-02-12 21:49:00,
2013-02-12 15:54:00,32.4,21.2,29.87,WSW,250,1.0,4.0,63,0.00,,---,0.01,VWS V14.01,2013-02-12 21:54:00,
2013-02-12 15:59:00,32.4,21.2,29.87,SW,232,2.0,4.0,63,0.00,,---,0.01,VWS V14.01,2013-02-12 21:59:00,
2013-02-12 16:00:00,29.4,19.8,29.86,WSW,237,0.0,2.0,67,0.00,,---,0.01,VWS V14.01,2013-02-12 22:00:00,
2013-02-12 16:04:00,32.1,20.9,29.87,SW,232,3.0,3.0,63,0.00,,---,0.01,VWS V14.01,2013-02-12 22:04:00,
2013-02-12 16:09:00,31.8,20.7,29.87,SW,222,0.0,5.0,63,0.00,,---,0.01,VWS V14.01,2013-02-12 22:09:00,
2013-02-12 16:14:00,31.6,20.5,29.86,WSW,237,1.0,5.0,63,0.00,,---,0.01,VWS V14.01,2013-02-12 22:14:00,
2013-02-12 16:19:00,31.3,20.5,29.86,WSW,237,0.0,5.0,64,0.00,,---,0.01,VWS V14.01,2013-02-12 22:19:00,
2013-02-12 16:24:00,31.3,20.5,29.86,WSW,237,1.0,5.0,64,0.00,,---,0.01,VWS V14.01,2013-02-12 22:24:00,
2013-02-12 16:29:00,31.0,20.3,29.87,WSW,237,1.0,5.0,64,0.00,,---,0.01,VWS V14.01,2013-02-12 22:29:00,
2013-02-12 16:30:00,26.9,18.1,29.86,WSW,237,0.0,1.0,69,0.00,,---,0.01,VWS V14.01,2013-02-12 22:30:00,
2013-02-12 16:34:00,30.7,20.3,29.87,WSW,237,0.0,2.0,65,0.00,,---,0.01,VWS V14.01,2013-02-12 22:34:00,
2013-02-12 16:39:00,30.5,20.1,29.86,WSW,237,0.0,2.0,65,0.00,,---,0.01,VWS V14.01,2013-02-12 22:39:00,
2013-02-12 16:44:00,30.4,20.1,29.86,WSW,237,0.0,2.0,65,0.00,,---,0.01,VWS V14.01,2013-02-12 22:44:00,
2013-02-12 16:49:00,30.2,20.2,29.86,WSW,237,0.0,2.0,66,0.00,,---,0.01,VWS V14.01,2013-02-12 22:49:00,
2013-02-12 16:54:00,29.9,19.6,29.86,WSW,237,0.0,2.0,65,0.00,,---,0.01,VWS V14.01,2013-02-12 22:54:00,
2013-02-12 16:59:00,29.6,19.6,29.86,WSW,237,0.0,2.0,66,0.00,,---,0.01,VWS V14.01,2013-02-12 22:59:00,
2013-02-12 17:00:00,25.3,17.2,29.86,WSW,237,0.0,1.0,71,0.00,,---,0.01,VWS V14.01,2013-02-12 23:00:00,
2013-02-12 17:04:00,29.1,19.5,29.85,WSW,237,0.0,0.0,67,0.00,,---,0.01,VWS V14.01,2013-02-12 23:04:00,
2013-02-12 17:09:00,28.8,19.2,29.86,WSW,237,1.0,1.0,67,0.00,,---,0.01,VWS V14.01,2013-02-12 23:09:00,
2013-02-12 17:14:00,28.4,18.9,29.86,WSW,237,0.0,1.0,67,0.00,,---,0.01,VWS V14.01,2013-02-12 23:14:00,
2013-02-12 17:19:00,27.9,18.7,29.85,WSW,237,0.0,1.0,68,0.00,,---,0.01,VWS V14.01,2013-02-12 23:19:00,
2013-02-12 17:24:00,27.4,18.2,29.86,WSW,237,0.0,1.0,68,0.00,,---,0.01,VWS V14.01,2013-02-12 23:24:00,
2013-02-12 17:29:00,27.0,18.2,29.86,WSW,237,0.0,1.0,69,0.00,,---,0.01,VWS V14.01,2013-02-12 23:29:00,
2013-02-12 17:30:00,23.8,16.7,29.87,WSW,237,0.0,1.0,74,0.00,,---,0.01,VWS V14.01,2013-02-12 23:30:00,
2013-02-12 17:34:00,26.7,18.2,29.86,WSW,237,0.0,0.0,70,0.00,,---,0.01,VWS V14.01,2013-02-12 23:34:00,
2013-02-12 17:39:00,26.5,18.0,29.85,WSW,237,0.0,0.0,70,0.00,,---,0.01,VWS V14.01,2013-02-12 23:39:00,
2013-02-12 17:44:00,26.2,17.8,29.86,WSW,237,0.0,0.0,70,0.00,,---,0.01,VWS V14.01,2013-02-12 23:44:00,
2013-02-12 17:49:00,26.0,17.9,29.86,WSW,237,0.0,1.0,71,0.00,,---,0.01,VWS V14.01,2013-02-12 23:49:00,
2013-02-12 17:54:00,25.6,17.5,29.86,WSW,237,1.0,1.0,71,0.00,,---,0.01,VWS V14.01,2013-02-12 23:54:00,
2013-02-12 17:59:00,25.4,17.3,29.85,WSW,237,0.0,1.0,71,0.00,,---,0.01,VWS V14.01,2013-02-12 23:59:00,
2013-02-12 18:00:00,23.4,16.7,29.86,West,277,0.0,2.0,75,0.00,,---,0.01,VWS V14.01,2013-02-13 00:00:00,
2013-02-12 18:04:00,25.1,17.4,29.86,WSW,237,0.0,0.0,72,0.00,,---,0.01,VWS V14.01,2013-02-13 00:04:00,
2013-02-12 18:09:00,24.9,17.2,29.86,WSW,237,0.0,0.0,72,0.00,,---,0.01,VWS V14.01,2013-02-13 00:09:00,
2013-02-12 18:14:00,24.5,16.8,29.86,WSW,237,0.0,0.0,72,0.00,,---,0.01,VWS V14.01,2013-02-13 00:14:00,
2013-02-12 18:19:00,24.2,16.8,29.87,WSW,237,0.0,1.0,73,0.00,,---,0.01,VWS V14.01,2013-02-13 00:19:00,
2013-02-12 18:24:00,24.0,16.9,29.87,WSW,237,0.0,1.0,74,0.00,,---,0.01,VWS V14.01,2013-02-13 00:24:00,
2013-02-12 18:29:00,23.9,16.8,29.87,WSW,237,0.0,1.0,74,0.00,,---,0.01,VWS V14.01,2013-02-13 00:29:00,
2013-02-12 18:30:00,23.5,16.8,29.86,West,263,0.0,4.0,75,0.00,,---,0.01,VWS V14.01,2013-02-13 00:30:00,
2013-02-12 18:34:00,23.6,16.5,29.87,WSW,237,0.0,0.0,74,0.00,,---,0.01,VWS V14.01,2013-02-13 00:34:00,
2013-02-12 18:39:00,23.5,16.5,29.86,WSW,237,0.0,0.0,74,0.00,,---,0.01,VWS V14.01,2013-02-13 00:39:00,
2013-02-12 18:44:00,23.4,16.7,29.87,WSW,237,0.0,1.0,75,0.00,,---,0.01,VWS V14.01,2013-02-13 00:44:00,
2013-02-12 18:49:00,23.4,16.7,29.86,WSW,237,0.0,1.0,75,0.00,,---,0.01,VWS V14.01,2013-02-13 00:49:00,
2013-02-12 18:54:00,23.4,16.7,29.86,WSW,237,0.0,1.0,75,0.00,,---,0.01,VWS V14.01,2013-02-13 00:54:00,
2013-02-12 18:59:00,23.4,16.7,29.86,WSW,237,0.0,1.0,75,0.00,,---,0.01,VWS V14.01,2013-02-13 00:59:00,
2013-02-12 19:00:00,23.6,16.9,29.85,West,262,0.0,3.0,75,0.00,,---,0.01,VWS V14.01,2013-02-13 01:00:00,
2013-02-12 19:04:00,23.4,16.7,29.86,West,277,1.0,2.0,75,0.00,,---,0.01,VWS V14.01,2013-02-13 01:04:00,
2013-02-12 19:09:00,23.4,16.7,29.86,West,277,0.0,2.0,75,0.00,,---,0.01,VWS V14.01,2013-02-13 01:09:00,
2013-02-12 19:14:00,23.5,16.8,29.86,West,277,1.0,2.0,75,0.00,,---,0.01,VWS V14.01,2013-02-13 01:14:00,
2013-02-12 19:19:00,23.4,16.7,29.86,West,277,0.0,2.0,75,0.00,,---,0.01,VWS V14.01,2013-02-13 01:19:00,
2013-02-12 19:24:00,23.4,17.0,29.86,West,277,0.0,2.0,76,0.00,,---,0.01,VWS V14.01,2013-02-13 01:24:00,
2013-02-12 19:29:00,23.4,17.0,29.86,West,275,1.0,3.0,76,0.00,,---,0.01,VWS V14.01,2013-02-13 01:29:00,
2013-02-12 19:30:00,23.4,17.0,29.85,West,281,0.0,2.0,76,0.00,,---,0.01,VWS V14.01,2013-02-13 01:30:00,
2013-02-12 19:34:00,23.5,17.1,29.86,West,263,0.0,0.0,76,0.00,,---,0.01,VWS V14.01,2013-02-13 01:34:00,
2013-02-12 19:39:00,23.6,16.9,29.86,West,263,0.0,3.0,75,0.00,,---,0.01,VWS V14.01,2013-02-13 01:39:00,
2013-02-12 19:44:00,23.6,16.9,29.86,West,263,1.0,3.0,75,0.00,,---,0.01,VWS V14.01,2013-02-13 01:44:00,
2013-02-12 19:49:00,23.6,16.9,29.86,West,261,0.0,3.0,75,0.00,,---,0.01,VWS V14.01,2013-02-13 01:49:00,
2013-02-12 19:54:00,23.6,16.9,29.85,West,262,0.0,3.0,75,0.00,,---,0.01,VWS V14.01,2013-02-13 01:54:00,
2013-02-12 19:59:00,23.6,17.2,29.85,West,262,0.0,3.0,76,0.00,,---,0.01,VWS V14.01,2013-02-13 01:59:00,
2013-02-12 20:00:00,23.0,16.9,29.84,West,277,0.0,1.0,77,0.00,,---,0.01,VWS V14.01,2013-02-13 02:00:00,
2013-02-12 20:04:00,23.6,17.2,29.85,West,262,0.0,2.0,76,0.00,,---,0.01,VWS V14.01,2013-02-13 02:04:00,
2013-02-12 20:09:00,23.6,17.2,29.85,West,262,0.0,2.0,76,0.00,,---,0.01,VWS V14.01,2013-02-13 02:09:00,
2013-02-12 20:14:00,23.6,17.2,29.85,West,262,1.0,2.0,76,0.00,,---,0.01,VWS V14.01,2013-02-13 02:14:00,
2013-02-12 20:19:00,23.6,17.2,29.85,West,262,0.0,2.0,76,0.00,,---,0.01,VWS V14.01,2013-02-13 02:19:00,
2013-02-12 20:24:00,23.5,17.1,29.85,West,262,0.0,2.0,76,0.00,,---,0.01,VWS V14.01,2013-02-13 02:24:00,
2013-02-12 20:29:00,23.5,17.1,29.85,West,262,0.0,2.0,76,0.00,,---,0.01,VWS V14.01,2013-02-13 02:29:00,
2013-02-12 20:30:00,23.1,17.3,29.84,WNW,283,0.0,1.0,78,0.00,,---,0.01,VWS V14.01,2013-02-13 02:30:00,
2013-02-12 20:34:00,23.4,17.0,29.85,West,278,0.0,1.0,76,0.00,,---,0.01,VWS V14.01,2013-02-13 02:34:00,
2013-02-12 20:39:00,23.4,17.0,29.85,West,278,0.0,1.0,76,0.00,,---,0.01,VWS V14.01,2013-02-13 02:39:00,
2013-02-12 20:44:00,23.3,16.9,29.85,West,277,0.0,1.0,76,0.00,,---,0.01,VWS V14.01,2013-02-13 02:44:00,
2013-02-12 20:49:00,23.2,17.1,29.85,West,278,0.0,1.0,77,0.00,,---,0.01,VWS V14.01,2013-02-13 02:49:00,
2013-02-12 20:54:00,23.1,17.0,29.84,West,278,0.0,1.0,77,0.00,,---,0.01,VWS V14.01,2013-02-13 02:54:00,
2013-02-12 20:59:00,23.1,17.0,29.84,West,278,0.0,1.0,77,0.00,,---,0.01,VWS V14.01,2013-02-13 02:59:00,
2013-02-12 21:00:00,23.3,17.5,29.83,WNW,283,0.0,2.0,78,0.00,,---,0.01,VWS V14.01,2013-02-13 03:00:00,
2013-02-12 21:04:00,23.0,16.9,29.84,West,278,0.0,0.0,77,0.00,,---,0.01,VWS V14.01,2013-02-13 03:04:00,
2013-02-12 21:09:00,23.0,16.9,29.85,West,278,0.0,0.0,77,0.00,,---,0.01,VWS V14.01,2013-02-13 03:09:00,
2013-02-12 21:14:00,23.0,16.9,29.84,West,278,0.0,0.0,77,0.00,,---,0.01,VWS V14.01,2013-02-13 03:14:00,
2013-02-12 21:19:00,23.1,17.0,29.84,West,277,0.0,0.0,77,0.00,,---,0.01,VWS V14.01,2013-02-13 03:19:00,
2013-02-12 21:24:00,23.1,17.0,29.84,West,277,0.0,1.0,77,0.00,,---,0.01,VWS V14.01,2013-02-13 03:24:00,
2013-02-12 21:29:00,23.1,17.0,29.84,West,278,0.0,1.0,77,0.00,,---,0.01,VWS V14.01,2013-02-13 03:29:00,
2013-02-12 21:30:00,22.9,17.1,29.83,WNW,283,0.0,0.0,78,0.00,,---,0.01,VWS V14.01,2013-02-13 03:30:00,
2013-02-12 21:34:00,23.2,17.4,29.84,WNW,283,0.0,1.0,78,0.00,,---,0.01,VWS V14.01,2013-02-13 03:34:00,
2013-02-12 21:39:00,23.2,17.4,29.84,WNW,283,0.0,1.0,78,0.00,,---,0.01,VWS V14.01,2013-02-13 03:39:00,
2013-02-12 21:44:00,23.3,17.5,29.84,WNW,283,0.0,2.0,78,0.00,,---,0.01,VWS V14.01,2013-02-13 03:44:00,
2013-02-12 21:49:00,23.3,17.5,29.83,WNW,283,0.0,2.0,78,0.00,,---,0.01,VWS V14.01,2013-02-13 03:49:00,
2013-02-12 21:54:00,23.3,17.5,29.83,WNW,283,0.0,2.0,78,0.00,,---,0.01,VWS V14.01,2013-02-13 03:54:00,
2013-02-12 21:59:00,23.3,17.5,29.83,WNW,283,0.0,2.0,78,0.00,,---,0.01,VWS V14.01,2013-02-13 03:59:00,
2013-02-12 22:00:00,20.6,15.4,29.82,WNW,283,0.0,0.0,80,0.00,,---,0.01,VWS V14.01,2013-02-13 04:00:00,
2013-02-12 22:04:00,23.3,17.5,29.83,WNW,283,0.0,0.0,78,0.00,,---,0.01,VWS V14.01,2013-02-13 04:04:00,
2013-02-12 22:09:00,23.3,17.5,29.83,WNW,283,0.0,0.0,78,0.00,,---,0.01,VWS V14.01,2013-02-13 04:09:00,
2013-02-12 22:14:00,23.3,17.5,29.83,WNW,283,0.0,0.0,78,0.00,,---,0.01,VWS V14.01,2013-02-13 04:14:00,
2013-02-12 22:19:00,23.2,17.4,29.83,WNW,283,0.0,0.0,78,0.00,,---,0.01,VWS V14.01,2013-02-13 04:19:00,
2013-02-12 22:24:00,23.1,17.3,29.83,WNW,283,0.0,0.0,78,0.00,,---,0.01,VWS V14.01,2013-02-13 04:24:00,
2013-02-12 22:29:00,23.0,17.2,29.83,WNW,283,0.0,0.0,78,0.00,,---,0.01,VWS V14.01,2013-02-13 04:29:00,
2013-02-12 22:30:00,18.4,13.6,29.82,WNW,283,0.0,0.0,81,0.00,,---,0.01,VWS V14.01,2013-02-13 04:30:00,
2013-02-12 22:34:00,22.6,16.8,29.83,WNW,283,0.0,0.0,78,0.00,,---,0.01,VWS V14.01,2013-02-13 04:34:00,
2013-02-12 22:39:00,22.2,16.4,29.83,WNW,283,0.0,0.0,78,0.00,,---,0.01,VWS V14.01,2013-02-13 04:39:00,
2013-02-12 22:44:00,21.8,16.3,29.83,WNW,283,0.0,0.0,79,0.00,,---,0.01,VWS V14.01,2013-02-13 04:44:00,
2013-02-12 22:49:00,21.4,15.9,29.83,WNW,283,0.0,0.0,79,0.00,,---,0.01,VWS V14.01,2013-02-13 04:49:00,
2013-02-12 22:54:00,21.0,15.5,29.83,WNW,283,0.0,0.0,79,0.00,,---,0.01,VWS V14.01,2013-02-13 04:54:00,
2013-02-12 22:59:00,20.7,15.5,29.82,WNW,283,0.0,0.0,80,0.00,,---,0.01,VWS V14.01,2013-02-13 04:59:00,
2013-02-12 23:00:00,20.7,15.5,29.82,WNW,283,0.0,0.0,80,0.00,,---,0.01,VWS V14.01,2013-02-13 05:00:00,
2013-02-12 23:05:00,20.3,15.1,29.82,WNW,283,0.0,0.0,80,0.00,,---,0.01,VWS V14.01,2013-02-13 05:05:00,
2013-02-12 23:10:00,20.0,14.8,29.82,WNW,283,0.0,0.0,80,0.00,,---,0.01,VWS V14.01,2013-02-13 05:10:00,
2013-02-12 23:15:00,19.7,14.5,29.82,WNW,283,0.0,0.0,80,0.00,,---,0.01,VWS V14.01,2013-02-13 05:15:00,
2013-02-12 23:20:00,19.2,14.1,29.82,WNW,283,0.0,0.0,80,0.00,,---,0.01,VWS V14.01,2013-02-13 05:20:00,
2013-02-12 23:25:00,18.8,13.7,29.82,WNW,283,0.0,0.0,80,0.00,,---,0.01,VWS V14.01,2013-02-13 05:25:00,
2013-02-12 23:30:00,18.4,13.6,29.82,WNW,283,0.0,0.0,81,0.00,,---,0.01,VWS V14.01,2013-02-13 05:30:00,
2013-02-12 23:35:00,18.1,13.3,29.82,WNW,283,0.0,0.0,81,0.00,,---,0.01,VWS V14.01,2013-02-13 05:35:00,
2013-02-12 23:40:00,17.9,13.4,29.82,WNW,283,0.0,0.0,82,0.00,,---,0.01,VWS V14.01,2013-02-13 05:40:00,
2013-02-12 23:45:00,17.6,12.8,29.81,WNW,283,0.0,0.0,81,0.00,,---,0.01,VWS V14.01,2013-02-13 05:45:00,
2013-02-12 23:50:00,17.2,12.4,29.81,WNW,283,0.0,0.0,81,0.00,,---,0.01,VWS V14.01,2013-02-13 05:50:00,
2013-02-12 23:55:00,16.9,12.1,29.81,WNW,283,0.0,0.0,81,0.00,,---,0.01,VWS V14.01,2013-02-13 05:55:00,